TimeMDT,TemperatureF,Dew PointF,Humidity,Sea Level PressureIn,VisibilityMPH,Wind Direction,Wind SpeedMPH,Gust SpeedMPH,PrecipitationIn,Events,Conditions,WindDirDegrees,DateUTC
12:15 AM,76.1,32.2,20,30.30,10.0,Calm,Calm,-,N/A,,Clear,0,2013-06-13 06:15:00
12:35 AM,75.7,32.2,20,30.30,10.0,WSW,5.8,-,N/A,,Clear,240,2013-06-13 06:35:00
12:55 AM,75.0,31.5,20,30.30,10.0,West,5.8,-,N/A,,Clear,260,2013-06-13 06:55:00
1:15 AM,74.5,32.0,21,30.30,10.0,West,5.8,-,N/A,,Clear,270,2013-06-13 07:15:00
1:35 AM,75.4,32.5,21,30.29,10.0,West,4.6,-,N/A,,Clear,270,2013-06-13 07:35:00
1:55 AM,72.7,32.9,23,30.29,10.0,SW,8.1,-,N/A,,Clear,230,2013-06-13 07:55:00
2:15 AM,72.5,32.0,23,30.30,10.0,SSW,9.2,-,N/A,,Clear,210,2013-06-13 08:15:00
2:35 AM,73.2,33.1,23,30.30,10.0,South,10.4,-,N/A,,Clear,190,2013-06-13 08:35:00
2:55 AM,72.7,34.2,24,30.31,10.0,SSW,5.8,-,N/A,,Clear,210,2013-06-13 08:55:00
3:15 AM,72.0,34.7,26,30.30,10.0,SSW,4.6,-,N/A,,Clear,210,2013-06-13 09:15:00
3:35 AM,71.8,35.1,26,30.29,10.0,SW,5.8,-,N/A,,Clear,220,2013-06-13 09:35:00
3:55 AM,70.7,35.4,27,30.29,10.0,SSW,6.9,-,N/A,,Clear,210,2013-06-13 09:55:00
4:15 AM,69.6,35.6,29,30.29,10.0,SW,6.9,-,N/A,,Clear,220,2013-06-13 10:15:00
4:35 AM,68.7,36.0,30,30.29,10.0,SSW,6.9,-,N/A,,Clear,210,2013-06-13 10:35:00
4:55 AM,68.7,35.6,30,30.30,10.0,SW,6.9,-,N/A,,Clear,220,2013-06-13 10:55:00
5:15 AM,68.9,37.6,32,30.30,10.0,SSW,6.9,-,N/A,,Clear,210,2013-06-13 11:15:00
5:35 AM,68.9,37.8,32,30.31,10.0,South,6.9,-,N/A,,Clear,190,2013-06-13 11:35:00
5:55 AM,69.1,38.7,33,30.31,10.0,South,10.4,-,N/A,,Clear,190,2013-06-13 11:55:00
6:15 AM,69.3,39.0,33,30.32,10.0,South,8.1,-,N/A,,Clear,190,2013-06-13 12:15:00
6:35 AM,69.4,39.4,33,30.31,10.0,SSW,8.1,-,N/A,,Clear,200,2013-06-13 12:35:00
6:55 AM,69.3,39.2,33,30.31,10.0,SSW,4.6,-,N/A,,Clear,210,2013-06-13 12:55:00
7:15 AM,70.9,40.1,33,30.31,10.0,SW,4.6,-,N/A,,Clear,220,2013-06-13 13:15:00
7:35 AM,72.5,40.3,31,30.31,10.0,SSW,4.6,-,N/A,,Clear,210,2013-06-13 13:35:00
7:55 AM,73.4,40.1,30,30.31,10.0,SSW,4.6,-,N/A,,Clear,210,2013-06-13 13:55:00
8:15 AM,73.9,39.9,29,30.32,10.0,South,4.6,-,N/A,,Clear,190,2013-06-13 14:15:00
8:35 AM,75.0,39.6,28,30.32,10.0,SSE,6.9,-,N/A,,Clear,160,2013-06-13 14:35:00
8:55 AM,76.1,39.4,27,30.32,10.0,South,4.6,-,N/A,,Clear,180,2013-06-13 14:55:00
9:15 AM,77.2,38.3,25,30.32,10.0,South,3.5,-,N/A,,Clear,180,2013-06-13 15:15:00
9:35 AM,78.4,37.8,23,30.32,10.0,SSW,9.2,-,N/A,,Clear,200,2013-06-13 15:35:00
9:55 AM,79.3,37.8,22,30.31,10.0,SSE,8.1,-,N/A,,Clear,160,2013-06-13 15:55:00
10:15 AM,79.7,35.8,21,30.31,10.0,South,9.2,17.3,N/A,,Clear,190,2013-06-13 16:15:00
10:35 AM,81.5,35.8,19,30.31,10.0,SE,8.1,-,N/A,,Clear,140,2013-06-13 16:35:00
10:55 AM,82.6,35.6,19,30.31,10.0,South,9.2,-,N/A,,Clear,180,2013-06-13 16:55:00
11:15 AM,82.6,35.1,18,30.31,10.0,SSE,13.8,19.6,N/A,,Clear,160,2013-06-13 17:15:00
11:35 AM,83.3,34.7,17,30.31,10.0,South,11.5,17.3,N/A,,Clear,170,2013-06-13 17:35:00
11:55 AM,84.4,33.8,16,30.30,10.0,SSE,8.1,16.1,N/A,,Clear,150,2013-06-13 17:55:00
12:15 PM,84.9,32.2,15,30.29,10.0,SSE,12.7,19.6,N/A,,Clear,160,2013-06-13 18:15:00
12:35 PM,84.7,31.8,15,30.29,10.0,SSE,11.5,23.0,N/A,,Clear,160,2013-06-13 18:35:00
12:55 PM,85.5,31.6,14,30.28,10.0,South,12.7,21.9,N/A,,Clear,190,2013-06-13 18:55:00
1:15 PM,86.7,31.3,14,30.27,10.0,SE,12.7,20.7,N/A,,Clear,140,2013-06-13 19:15:00
1:35 PM,86.5,30.2,13,30.25,10.0,SSE,12.7,21.9,N/A,,Clear,160,2013-06-13 19:35:00
1:55 PM,85.5,30.7,14,30.25,10.0,South,16.1,24.2,N/A,,Clear,170,2013-06-13 19:55:00
2:15 PM,84.9,31.1,14,30.25,10.0,South,17.3,23.0,N/A,,Clear,190,2013-06-13 20:15:00
2:35 PM,85.1,32.0,15,30.24,10.0,SSE,15.0,26.5,N/A,,Clear,160,2013-06-13 20:35:00
2:55 PM,85.3,29.7,13,30.23,10.0,South,12.7,23.0,N/A,,Clear,180,2013-06-13 20:55:00
3:15 PM,86.2,28.0,12,30.23,10.0,South,9.2,17.3,N/A,,Clear,170,2013-06-13 21:15:00
3:35 PM,85.5,28.8,13,30.22,10.0,South,13.8,21.9,N/A,,Clear,170,2013-06-13 21:35:00
3:55 PM,85.8,27.3,12,30.21,10.0,South,11.5,18.4,N/A,,Clear,180,2013-06-13 21:55:00
4:15 PM,86.0,27.3,12,30.21,10.0,SSE,9.2,16.1,N/A,,Clear,160,2013-06-13 22:15:00
4:35 PM,84.6,28.2,13,30.21,10.0,SSE,18.4,28.8,N/A,,Clear,160,2013-06-13 22:35:00
4:55 PM,84.0,28.4,13,30.21,10.0,South,10.4,21.9,N/A,,Clear,180,2013-06-13 22:55:00
5:15 PM,84.2,27.5,13,30.21,10.0,South,4.6,-,N/A,,Clear,190,2013-06-13 23:15:00
5:35 PM,84.0,27.1,13,30.23,10.0,SW,4.6,10.4,N/A,,Clear,220,2013-06-13 23:35:00
5:55 PM,79.0,32.9,19,30.22,10.0,North,8.1,-,N/A,,Clear,350,2013-06-13 23:55:00
6:15 PM,77.9,32.9,19,30.21,10.0,NNW,18.4,28.8,N/A,,Clear,330,2013-06-14 00:15:00
6:35 PM,76.8,35.8,23,30.23,10.0,North,17.3,21.9,N/A,Rain,Heavy Rain,350,2013-06-14 00:35:00
6:55 PM,74.7,37.8,26,30.25,10.0,WNW,24.2,29.9,N/A,Rain,Light Rain,300,2013-06-14 00:55:00
7:15 PM,71.6,39.2,31,30.25,10.0,NNW,9.2,20.7,N/A,,Overcast,340,2013-06-14 01:15:00
7:35 PM,72.3,39.6,30,30.24,10.0,WNW,3.5,-,N/A,,Mostly Cloudy,300,2013-06-14 01:35:00
7:55 PM,76.3,33.3,21,30.24,10.0,SSE,10.4,17.3,N/A,,Scattered Clouds,160,2013-06-14 01:55:00
8:15 PM,74.3,36.1,25,30.26,10.0,East,9.2,-,N/A,,Clear,100,2013-06-14 02:15:00
8:35 PM,73.8,36.5,26,30.25,10.0,ENE,8.1,17.3,N/A,,Scattered Clouds,60,2013-06-14 02:35:00
8:55 PM,73.8,36.1,25,30.26,10.0,Calm,Calm,-,N/A,,Mostly Cloudy,0,2013-06-14 02:55:00
9:15 PM,73.4,36.5,26,30.26,10.0,West,4.6,-,N/A,,Scattered Clouds,280,2013-06-14 03:15:00
9:35 PM,72.9,36.9,27,30.27,10.0,NNW,5.8,-,N/A,,Clear,330,2013-06-14 03:35:00
9:55 PM,72.5,37.8,28,30.29,10.0,North,3.5,-,N/A,,Mostly Cloudy,10,2013-06-14 03:55:00
10:15 PM,71.1,38.3,30,30.30,10.0,Calm,Calm,-,N/A,,Mostly Cloudy,0,2013-06-14 04:15:00
10:35 PM,70.9,38.3,30,30.31,10.0,WNW,3.5,-,N/A,,Scattered Clouds,290,2013-06-14 04:35:00
10:55 PM,70.9,38.3,30,30.30,10.0,Calm,Calm,-,N/A,,Scattered Clouds,0,2013-06-14 04:55:00
11:15 PM,70.3,38.1,31,30.31,10.0,West,5.8,-,N/A,,Scattered Clouds,260,2013-06-14 05:15:00
11:35 PM,70.3,38.3,31,30.30,10.0,Calm,Calm,-,N/A,,Clear,0,2013-06-14 05:35:00
11:55 PM,70.7,38.3,31,30.29,10.0,Calm,Calm,-,N/A,,Scattered Clouds,0,2013-06-14 05:55:00